Location: Azul
(36.7830°S, 59.8500°W)
Time: 13:15:18
(UTC-03:00)

ISS - Pass Details

Date: 17 August 2017
Orbit: 401 x 408 km, 51.6° (Epoch: 19 August)

Event Time Altitude Azimuth Distance (km) Brightness Sun altitude
Exits shadow 05:48:58 19° 163° (SSE) 1,061 -1.6 -22.8°
Maximum altitude 05:49:26 20° 152° (SSE) 1,043 -1.5 -22.7°
Drops below altitude 10° 05:51:58 10° 102° (ESE) 1,490 0.1 -22.2°
Sets 05:54:26 0° 84° (E) 2,347 1.6 -21.7°
